Regional Weather Roundup
Issued by NWS Northern Indiana

Home | Current Version | Previous Version | Text Only | Print | Product List | Glossary On
Versions: 1 2 3 4 5 6 7 8 9 10 11 12 13 14 15 16 17 18 19 20 21 22 23 24 25 26 27 28 29 30 31 32 33 34 35 36 37 38 39 40 41 42 43 44 45 46 47 48 49 50
000
ASUS43 KIWX 290900
RWRIWX

KIWX WEATHER ROUNDUP
NATIONAL WEATHER SERVICE NORTHERN INDIANA
500 AM EDT THU SEP 29 2016

NOTE: "FAIR" INDICATES FEW OR NO CLOUDS BELOW 12,000 FEET WITH NO
SIGNIFICANT WEATHER AND/OR OBSTRUCTIONS TO VISIBILITY.

* THESE STATIONS ARE NOT UNDER NWS QUALITY CONTROL. THEY ALSO MAY NOT
  REPORT WEATHER SUCH AS PRECIPITATION OR FOG.

INZ001>027-291000-
NORTHERN INDIANA

CITY           SKY/WX    TMP DP  RH WIND       PRES   REMARKS
VALPARAISO     LGT RAIN  56  54  93 NE12      30.03S
SOUTH BEND     LGT RAIN  56  55  97 N13       30.04R
GOSHEN         CLOUDY    57  54  89 NE6       30.02R
ANGOLA*          N/A     55  43  62 NE8       30.01R
FORT WAYNE     CLOUDY    56  54  93 NE7       29.99S

$$
INZ028>050-291000-
CENTRAL INDIANA

CITY           SKY/WX    TMP DP  RH WIND       PRES   REMARKS
KOKOMO*        CLOUDY    55  54  94 NE5       30.00R
MUNCIE*        CLOUDY    55  52  89 NE5       29.98S
INDIANAPOLIS   CLOUDY    55  51  86 N5        29.97F

$$
MIZ043>046-050>051-056>058-064>065-071>073-077>080-291000-
SOUTHWEST LOWER MICHIGAN

CITY           SKY/WX    TMP DP  RH WIND       PRES   REMARKS
BATTLE CREEK   RAIN      57  56  96 N6        30.05S FOG
BENTON HARBOR  CLOUDY    59  53  80 NE8       30.06R
COLDWATER*     LGT RAIN  57  57  99 N6        30.02S
HILLSDALE*     CLOUDY    55  54  94 NE6       30.02R
HOLLAND        CLOUDY    59  53  80 N7        30.09R
GRAND RAPIDS   CLOUDY    59  52  77 NE13      30.09R
KALAMAZOO      LGT RAIN  57  54  89 N7        30.06S FOG
STURGIS*       LGT RAIN  57  55  92 NE8       30.02R
THREE RIVERS*  RAIN      58  56  96 NE6       30.04R

$$
OHZ001>008-015>018-024>025-291000-
NORTHWEST OHIO

CITY           SKY/WX    TMP DP  RH WIND       PRES   REMARKS
DEFIANCE       CLOUDY    57  54  89 N5        30.00R
FINDLAY        CLOUDY    57  53  86 E6        29.98R
TOLEDO EXPRESS MOCLDY    56  56 100 N3        29.99S
TOLEDO METCALF CLOUDY    58  57  97 NW3       30.00R
LIMA           CLOUDY    55  55 100 E6        29.98R

$$
AND FOR LAKE MICHIGAN COASTAL AND OPEN LAKE BUOY OBSERVATIONS

STATION/POSITION TEMP    WIND        PRES    VSBY  WAVE
                 AIR SEA DIR/SP/G                  HT/PER
                 (F)     (DEG/KT/KT) (MB)    (MI)  (FT/S)
CALUMET HARBOR    63      30/ 16/ 22 1017.0S
MICHIGAN CITY     58      40/ 15/ 16   N/A
BURNS HARBOR      62      60/ 21/ 24 1017.3R
SAINT JOSEPH      59      30/  6/ 17 1017.9R
SOUTH LAKE BUOY   65 69   50/ 23/ 27 1017.9          7/ 7
4 MI NW BRIDGMAN  61 64   50/ 16/ 21 1017.6R         6/ 7
MICHIGAN CITY     62 65   60/ 19/ 25   N/A           7/ 7

$$
&&




USA.gov is the U.S. government's official web portal to all federal, state and local government web resources and services.